Weather in Svobodniy

Russia / Amur Oblast     51°22′33″N   128°08′02″E
temp.,
°C
wind,
m/s
gust,
m/s
humid.,
%
clouds,
%
prec.,
mm/h
press.,
hPa
HPBL,
m
9 december, thu
thu900:00−10s4109410 0.0 1022169
03:00−11s4119599 0.0 1020184
06:00−11s51094100 0.0 1019206
09:00−10s51192100 0.0 1018216
12:00−7s4888100 0.0 1018261
15:00−5s4792100 0.0 1017274
18:00−5ssw3797100 0.9 1018273
21:00−5w259698 1.9 1019126
10 december, fri
fri1000:00−10nw3691100 0.1 1020108
03:00−10nw4892100 0.1 1021175
06:00−10nw4891100 0.0 1022203
09:00−11nw4891100 0.0 1024176
12:00−9nw4784100 0.0 1025270
15:00−9nw3485100 0.0 102587
18:00−16nw22916 0.0 102721
21:00−16nw2290100 0.0 102826
11 december, sat
sat1100:00−17wnw2292100 0.0 102812
03:00−15nw2293100 0.0 102722
06:00−15sw0095100 0.0 10269
09:00−15se119685 0.0 102630
12:00−12se2288100 0.0 1025156
15:00−11ese2494100 0.3 1023233
18:00−11e2496100 0.7 1022166
21:00−11ene2396100 1.3 1020113
12 december, sun
sun1200:00−12ne2496100 0.4 1019125
03:00−12n3595100 0.8 1017221
06:00−12nnw4894100 0.4 1016356
09:00−14nnw5993100 0.6 1016392
12:00−13nnw6988100 0.1 1016571
15:00−13nw61088100 0.2 1015682
18:00−14nw6128688 0.1 1016534
21:00−15nw6128767 0.1 1016398
13 december, mon
mon1300:00−17nw613825 0.0 1016341
03:00−19nw511835 0.0 1016249
06:00−20wnw510845 0.0 1016189
09:00−23wnw36885 0.0 101686
12:00−17w357522 0.0 1015263
15:00−16wsw2281100 0.0 101558
18:00−21ssw229296 0.0 101610
21:00−21s119695 0.0 101610